• In Hungary
  • List of Countries
  • For 7 days
  • Water Temperature
  • Satellite Maps
  • Weather Map
  • News
  • Weather Widgets
  • user-avatar
    Login

    Hourly Weather Bilina

    Today, 18 December, Monday

    Time Temperature Precipitation Wind Pressure Humidity
    00:00 -1°C° 0 mm 1 mps 744 mmHg 91%
    01:00 -2°C° 0 mm 1 mps 744 mmHg 91%
    02:00 -1°C° 0 mm 1 mps 744 mmHg 91%
    03:00 -1°C° 0 mm 1 mps 744 mmHg 90%
    04:00 -1°C° 0 mm 1 mps 744 mmHg 89%
    05:00 -1°C° 0 mm 1 mps 744 mmHg 89%
    06:00 -1°C° 0 mm 1 mps 744 mmHg 89%
    07:00 -1°C° 0 mm 1 mps 744 mmHg 88%
    08:00 0°C° 0 mm 1 mps 744 mmHg 87%
    09:00 0°C° 0 mm 1 mps 745 mmHg 85%
    10:00 0°C° 0 mm 1 mps 745 mmHg 84%
    11:00 +1°C° 0 mm 1 mps 745 mmHg 82%
    12:00 +2°C° 0 mm 1 mps 745 mmHg 80%
    13:00 +2°C° 0 mm 1 mps 745 mmHg 78%
    14:00 +1°C° 0 mm 1 mps 745 mmHg 80%
    15:00 +1°C° 0 mm 1 mps 745 mmHg 83%
    16:00 0°C° 0 mm 1 mps 746 mmHg 86%
    17:00 0°C° 0 mm 1 mps 746 mmHg 87%
    18:00 -1°C° 0 mm 1 mps 747 mmHg 87%
    19:00 -1°C° 0 mm 1 mps 747 mmHg 88%
    20:00 -1°C° 0 mm 1 mps 747 mmHg 88%
    21:00 -2°C° 0 mm 1 mps 748 mmHg 88%
    22:00 -2°C° 0 mm 1 mps 748 mmHg 88%
    23:00 -2°C° 0 mm 1 mps 748 mmHg 88%

    Tomorrow, 19 December, Tuesday

    Time Temperature Precipitation Wind Pressure Humidity
    00:00 -2°C° 0 mm 1 mps 748 mmHg 87%
    01:00 -2°C° 0 mm 1 mps 749 mmHg 87%
    02:00 -2°C° 0 mm 1 mps 749 mmHg 87%
    03:00 -2°C° 0 mm 1 mps 749 mmHg 87%
    04:00 -2°C° 0 mm 1 mps 749 mmHg 87%
    05:00 -2°C° 0 mm 1 mps 750 mmHg 87%
    06:00 -2°C° 0 mm 1 mps 750 mmHg 87%
    07:00 -2°C° 0 mm 1 mps 750 mmHg 87%
    08:00 -2°C° 0 mm 1 mps 751 mmHg 85%
    09:00 -1°C° 0 mm 1 mps 751 mmHg 83%
    10:00 -1°C° 0 mm 1 mps 751 mmHg 81%
    11:00 0°C° 0 mm 1 mps 751 mmHg 79%
    12:00 +1°C° 0 mm 1 mps 751 mmHg 78%
    13:00 +2°C° 0 mm 1 mps 751 mmHg 76%
    14:00 +1°C° 0 mm 1 mps 751 mmHg 80%
    15:00 +1°C° 0 mm 1 mps 751 mmHg 84%
    16:00 0°C° 0 mm 1 mps 751 mmHg 88%
    17:00 +1°C° 0 mm 1 mps 751 mmHg 89%
    18:00 +1°C° 0 mm 1 mps 751 mmHg 90%
    19:00 +1°C° 0 mm 1 mps 751 mmHg 91%
    20:00 -1°C° 0.1 mm 2 mps 751 mmHg 91%
    21:00 -1°C° 0.1 mm 2 mps 751 mmHg 92%
    22:00 -1°C° 0.1 mm 2 mps 751 mmHg 92%
    23:00 -1°C° 0.2 mm 2 mps 751 mmHg 92%

    Day after tomorrow, 20 December, Wednesday

    Time Temperature Precipitation Wind Pressure Humidity
    00:00 +1°C° 0.2 mm 2 mps 751 mmHg 92%
    01:00 +1°C° 0.2 mm 2 mps 750 mmHg 93%
    02:00 +1°C° 0.2 mm 2 mps 750 mmHg 93%
    03:00 +1°C° 0.2 mm 2 mps 750 mmHg 93%
    04:00 +1°C° 0.2 mm 2 mps 749 mmHg 93%
    05:00 +1°C° 0.1 mm 2 mps 749 mmHg 94%
    06:00 +1°C° 0.1 mm 2 mps 749 mmHg 94%
    07:00 +1°C° 0.1 mm 2 mps 749 mmHg 94%
    08:00 +1°C° 0.1 mm 2 mps 749 mmHg 94%
    09:00 +1°C° 0.1 mm 2 mps 749 mmHg 94%
    10:00 +3°C° 0.1 mm 1 mps 749 mmHg 94%
    11:00 +3°C° 0.1 mm 1 mps 749 mmHg 94%
    12:00 +3°C° 0.1 mm 1 mps 749 mmHg 94%
    13:00 +4°C° 0.1 mm 1 mps 749 mmHg 93%
    14:00 +3°C° 0.3 mm 1 mps 749 mmHg 94%
    15:00 +3°C° 0.3 mm 1 mps 749 mmHg 94%
    16:00 +3°C° 0.3 mm 1 mps 749 mmHg 95%
    17:00 +3°C° 0.5 mm 1 mps 749 mmHg 95%
    18:00 +3°C° 0.5 mm 1 mps 749 mmHg 95%
    19:00 +3°C° 0.5 mm 1 mps 749 mmHg 96%
    20:00 +3°C° 0.5 mm 1 mps 749 mmHg 96%
    21:00 +3°C° 0.5 mm 1 mps 749 mmHg 96%
    22:00 +3°C° 0.5 mm 1 mps 749 mmHg 96%
    23:00 +3°C° 0.3 mm 1 mps 749 mmHg 96%

    21 December, Thursday

    Time Temperature Precipitation Wind Pressure Humidity
    00:00 +3°C° 0.3 mm 1 mps 749 mmHg 97%
    01:00 +4°C° 0.3 mm 1 mps 750 mmHg 97%
    02:00 +4°C° 0.2 mm 1 mps 749 mmHg 97%
    03:00 +3°C° 0.2 mm 2 mps 749 mmHg 97%
    04:00 +3°C° 0.2 mm 2 mps 749 mmHg 97%
    05:00 +3°C° 0.1 mm 2 mps 749 mmHg 97%
    06:00 +4°C° 0.1 mm 2 mps 749 mmHg 96%
    07:00 +4°C° 0.1 mm 2 mps 749 mmHg 96%
    08:00 +4°C° 0.2 mm 2 mps 749 mmHg 96%
    09:00 +3°C° 0.2 mm 3 mps 749 mmHg 96%
    10:00 +4°C° 0.2 mm 3 mps 749 mmHg 96%
    11:00 +4°C° 0.5 mm 3 mps 749 mmHg 95%
    12:00 +4°C° 0.5 mm 4 mps 748 mmHg 95%
    13:00 +4°C° 0.5 mm 4 mps 748 mmHg 95%
    14:00 +4°C° 0.2 mm 4 mps 748 mmHg 95%
    15:00 +4°C° 0.2 mm 4 mps 748 mmHg 95%
    16:00 +4°C° 0.2 mm 3 mps 748 mmHg 95%
    17:00 +4°C° 0.1 mm 3 mps 748 mmHg 95%
    18:00 +4°C° 0.1 mm 3 mps 748 mmHg 95%
    19:00 +5°C° 0.1 mm 2 mps 748 mmHg 95%
    20:00 +5°C° 0.2 mm 2 mps 748 mmHg 96%
    21:00 +5°C° 0.2 mm 2 mps 748 mmHg 96%
    22:00 +5°C° 0.2 mm 2 mps 747 mmHg 96%
    23:00 +4°C° 0.6 mm 3 mps 747 mmHg 95%

    22 December, Friday

    Time Temperature Precipitation Wind Pressure Humidity
    00:00 +4°C° 0.6 mm 4 mps 746 mmHg 94%
    01:00 +5°C° 0.6 mm 5 mps 745 mmHg 93%
    02:00 +4°C° 0.6 mm 6 mps 745 mmHg 91%
    03:00 +4°C° 0.6 mm 7 mps 745 mmHg 89%
    04:00 +5°C° 0.6 mm 8 mps 745 mmHg 88%
    05:00 +4°C° 0.1 mm 7 mps 746 mmHg 87%
    06:00 +3°C° 0.1 mm 7 mps 747 mmHg 86%
    07:00 +2°C° 0.1 mm 6 mps 749 mmHg 85%
    08:00 +2°C° 0.1 mm 6 mps 749 mmHg 84%
    09:00 +2°C° 0.1 mm 6 mps 750 mmHg 83%
    10:00 +2°C° 0.1 mm 5 mps 751 mmHg 82%
    11:00 +2°C° 0.1 mm 6 mps 751 mmHg 80%
    12:00 +2°C° 0.1 mm 6 mps 751 mmHg 78%
    13:00 +3°C° 0.1 mm 6 mps 751 mmHg 76%
    14:00 +2°C° 0 mm 6 mps 750 mmHg 77%
    15:00 +2°C° 0 mm 6 mps 750 mmHg 78%
    16:00 +2°C° 0 mm 5 mps 750 mmHg 79%
    17:00 +1°C° 0 mm 6 mps 750 mmHg 79%
    18:00 +1°C° 0 mm 6 mps 749 mmHg 80%
    19:00 +1°C° 0 mm 6 mps 749 mmHg 81%
    20:00 0°C° 0 mm 7 mps 748 mmHg 80%
    21:00 0°C° 0 mm 7 mps 748 mmHg 79%
    22:00 0°C° 0 mm 7 mps 747 mmHg 79%
    23:00 0°C° 0.1 mm 7 mps 746 mmHg 79%

    23 December, Saturday

    Time Temperature Precipitation Wind Pressure Humidity
    00:00 0°C° 0.1 mm 7 mps 745 mmHg 79%
    01:00 0°C° 0.1 mm 7 mps 744 mmHg 79%
    02:00 0°C° 0.6 mm 8 mps 743 mmHg 80%
    03:00 0°C° 0.6 mm 8 mps 742 mmHg 81%
    04:00 0°C° 0.6 mm 9 mps 741 mmHg 81%
    05:00 0°C° 1 mm 8 mps 741 mmHg 82%
    06:00 0°C° 1 mm 8 mps 741 mmHg 83%
    07:00 +1°C° 1 mm 8 mps 742 mmHg 84%
    08:00 0°C° 0.3 mm 7 mps 743 mmHg 83%
    09:00 -1°C° 0.3 mm 6 mps 743 mmHg 82%
    10:00 -2°C° 0.3 mm 6 mps 744 mmHg 81%
    11:00 -2°C° 0 mm 6 mps 745 mmHg 78%
    12:00 -2°C° 0 mm 6 mps 746 mmHg 74%
    13:00 -1°C° 0 mm 6 mps 746 mmHg 70%
    14:00 -1°C° 0 mm 5 mps 747 mmHg 73%
    15:00 -2°C° 0 mm 4 mps 747 mmHg 75%
    16:00 -2°C° 0 mm 4 mps 748 mmHg 77%
    17:00 -2°C° 0 mm 4 mps 748 mmHg 80%
    18:00 -2°C° 0 mm 3 mps 749 mmHg 82%
    19:00 -2°C° 0 mm 3 mps 749 mmHg 85%
    20:00 -2°C° 0 mm 3 mps 750 mmHg 86%
    21:00 -2°C° 0 mm 3 mps 750 mmHg 86%
    22:00 -4°C° 0 mm 3 mps 750 mmHg 87%
    23:00 -4°C° 0 mm 3 mps 750 mmHg 85%
    Show more